Regional Weather Roundup
Issued by NWS

Home | Current Version | Previous Version | Graphics & Text | Print | Product List | Glossary On
Versions: 1 2 3 4 5 6 7 8 9 10 11 12 13 14 15 16 17 18 19 20 21 22 23 24 25 26 27 28 29 30 31 32 33 34 35 36 37 38 39 40 41 42 43 44 45 46 47 48 49 50
000
ASUS43 KBIS 241220
RWRND

NORTH DAKOTA REGIONAL WEATHER ROUNDUP
NATIONAL WEATHER SERVICE BISMARCK ND
700 AM CDT SUN MAY 24 2015

NOTE: "FAIR" INDICATES FEW OR NO CLOUDS BELOW 12,000 FEET WITH NO
SIGNIFICANT WEATHER AND/OR OBSTRUCTIONS TO VISIBILITY.


NDZ001>003-009>011-017-241300-
NORTHWEST NORTH DAKOTA

CITY           SKY/WX    TMP DP  RH WIND       PRES   REMARKS
WILLISTON      CLEAR     45  41  86 NE5       30.08S
6HR MIN TEMP:  44; 6HR MAX TEMP:  52;

MINOT          MOCLDY    51  47  86 CALM      30.07S
MINOT AFB      CLEAR     47  47 100 SW2       30.07R
$$

NDZ018>021-031>035-040>046-241300-
SOUTHWEST NORTH DAKOTA

CITY           SKY/WX    TMP DP  RH WIND       PRES   REMARKS
BISMARCK       CLOUDY    54  51  90 NE3       30.07S
6HR MIN TEMP:  51; 6HR MAX TEMP:  56;

DICKINSON      CLOUDY    49  46  90 NE5       30.05S FOG
GARRISON         N/A     54  50  86 NE3       30.06F
6HR MIN TEMP:  50; 6HR MAX TEMP:  56;

HETTINGER ARPT LGT RAIN  50  48  93 NE12      30.05S FOG
$$

NDZ004>008-012>016-024-026-027-054-241300-
NORTHEAST NORTH DAKOTA

CITY           SKY/WX    TMP DP  RH WIND       PRES   REMARKS
GRAND FORKS    MOSUNNY   50  46  86 S5        30.08R
GRND FRKS AFB  SUNNY     48  46  93 W1        30.08S
DEVILS LAKE    SUNNY     54  48  82 CALM      30.07S
$$

NDZ022-023-025-028>030-036>039-047>053-241300-
SOUTHEAST NORTH DAKOTA

CITY           SKY/WX    TMP DP  RH WIND       PRES   REMARKS
FARGO          MOSUNNY   55  49  80 CALM      30.06F
6HR MIN TEMP:  49; 6HR MAX TEMP:  55;

JAMESTOWN      MOCLDY    54  50  86 NE6       30.07S
$$




USA.gov is the U.S. government's official web portal to all federal, state and local government web resources and services.